When you browse on this site, cookies collect data to enhance your experience and personalize the content and advertising you see.
Visit our Privacy Policy to learn more. By continuing to use the site, you agree to this use of cookies and data.
EN

Hourly Weather Dillingen

Today, 11 August, Tuesday

Time Temperature Precipitation Wind Pressure Humidity
00:00 +25°C° 0 mm 2 mps 744 mmHg 77%
01:00 +24°C° 0 mm 1 mps 744 mmHg 79%
02:00 +23°C° 0 mm 1 mps 743 mmHg 81%
03:00 +23°C° 0 mm 1 mps 743 mmHg 83%
04:00 +23°C° 0 mm 1 mps 743 mmHg 82%
05:00 +24°C° 0 mm 1 mps 744 mmHg 81%
06:00 +24°C° 0 mm 1 mps 744 mmHg 80%
07:00 +26°C° 0 mm 1 mps 744 mmHg 73%
08:00 +28°C° 0 mm 1 mps 745 mmHg 65%
09:00 +30°C° 0 mm 1 mps 745 mmHg 58%
10:00 +31°C° 0.1 mm 1 mps 745 mmHg 52%
11:00 +33°C° 0.1 mm 1 mps 745 mmHg 47%
12:00 +35°C° 0.1 mm 2 mps 745 mmHg 42%
13:00 +35°C° 0 mm 2 mps 745 mmHg 40%
14:00 +35°C° 0 mm 2 mps 744 mmHg 39%
15:00 +36°C° 0 mm 2 mps 744 mmHg 38%
16:00 +34°C° 0 mm 2 mps 744 mmHg 44%
17:00 +32°C° 0 mm 2 mps 744 mmHg 49%
18:00 +31°C° 0 mm 2 mps 744 mmHg 55%
19:00 +29°C° 0.2 mm 1 mps 744 mmHg 60%
20:00 +27°C° 0.2 mm 1 mps 744 mmHg 64%
21:00 +26°C° 0.2 mm 1 mps 744 mmHg 69%
22:00 +25°C° 0.1 mm 1 mps 744 mmHg 72%
23:00 +24°C° 0.1 mm 1 mps 744 mmHg 76%

Tomorrow, 12 August, Wednesday

Time Temperature Precipitation Wind Pressure Humidity
00:00 +24°C° 0.1 mm 1 mps 744 mmHg 79%
01:00 +23°C° 0.1 mm 1 mps 744 mmHg 81%
02:00 +23°C° 0.1 mm 1 mps 744 mmHg 83%
03:00 +23°C° 0.1 mm 1 mps 743 mmHg 86%
04:00 +23°C° 0 mm 1 mps 744 mmHg 85%
05:00 +24°C° 0 mm 1 mps 744 mmHg 84%
06:00 +24°C° 0 mm 1 mps 744 mmHg 83%
07:00 +26°C° 0 mm 2 mps 744 mmHg 75%
08:00 +28°C° 0 mm 2 mps 744 mmHg 67%
09:00 +30°C° 0 mm 2 mps 744 mmHg 60%
10:00 +32°C° 0 mm 2 mps 744 mmHg 54%
11:00 +34°C° 0 mm 2 mps 744 mmHg 48%
12:00 +35°C° 0 mm 2 mps 744 mmHg 42%
13:00 +36°C° 0 mm 2 mps 744 mmHg 40%
14:00 +35°C° 0 mm 1 mps 743 mmHg 38%
15:00 +36°C° 0 mm 1 mps 743 mmHg 35%
16:00 +35°C° 0 mm 2 mps 743 mmHg 41%
17:00 +34°C° 0 mm 2 mps 743 mmHg 46%
18:00 +31°C° 0 mm 2 mps 742 mmHg 52%
19:00 +29°C° 0.2 mm 2 mps 742 mmHg 58%
20:00 +28°C° 0.2 mm 2 mps 742 mmHg 64%
21:00 +26°C° 0.2 mm 2 mps 743 mmHg 70%
22:00 +25°C° 0.2 mm 2 mps 743 mmHg 73%
23:00 +24°C° 0.2 mm 1 mps 742 mmHg 76%

Day after tomorrow, 13 August, Thursday

Time Temperature Precipitation Wind Pressure Humidity
00:00 +24°C° 0.2 mm 1 mps 742 mmHg 79%
01:00 +23°C° 0.3 mm 1 mps 742 mmHg 79%
02:00 +23°C° 0.3 mm 1 mps 742 mmHg 80%
03:00 +23°C° 0.3 mm 1 mps 742 mmHg 80%
04:00 +23°C° 0 mm 1 mps 742 mmHg 79%
05:00 +23°C° 0 mm 1 mps 743 mmHg 78%
06:00 +24°C° 0 mm 1 mps 743 mmHg 77%
07:00 +25°C° 0 mm 2 mps 743 mmHg 72%
08:00 +26°C° 0 mm 2 mps 744 mmHg 66%
09:00 +28°C° 0 mm 3 mps 744 mmHg 60%
10:00 +29°C° 0 mm 3 mps 744 mmHg 54%
11:00 +31°C° 0 mm 3 mps 744 mmHg 48%
12:00 +33°C° 0 mm 3 mps 744 mmHg 42%
13:00 +33°C° 0 mm 4 mps 743 mmHg 42%
14:00 +32°C° 0 mm 4 mps 743 mmHg 43%
15:00 +32°C° 0 mm 4 mps 743 mmHg 44%
16:00 +30°C° 0 mm 3 mps 743 mmHg 49%
17:00 +29°C° 0 mm 2 mps 743 mmHg 54%
18:00 +27°C° 0 mm 1 mps 743 mmHg 59%
19:00 +26°C° 0.1 mm 1 mps 743 mmHg 63%
20:00 +24°C° 0.1 mm 1 mps 743 mmHg 68%
21:00 +23°C° 0.1 mm 1 mps 743 mmHg 72%
22:00 +22°C° 0.2 mm 1 mps 743 mmHg 77%
23:00 +22°C° 0.2 mm 1 mps 743 mmHg 81%

14 August, Friday

Time Temperature Precipitation Wind Pressure Humidity
00:00 +20°C° 0.2 mm 2 mps 744 mmHg 85%
01:00 +20°C° 0.1 mm 2 mps 744 mmHg 87%
02:00 +20°C° 0.1 mm 1 mps 744 mmHg 90%
03:00 +20°C° 0.1 mm 1 mps 744 mmHg 92%
04:00 +19°C° 0 mm 2 mps 744 mmHg 92%
05:00 +19°C° 0 mm 2 mps 744 mmHg 91%
06:00 +20°C° 0 mm 2 mps 744 mmHg 91%
07:00 +20°C° 0 mm 3 mps 745 mmHg 89%
08:00 +21°C° 0 mm 3 mps 745 mmHg 87%
09:00 +21°C° 0 mm 3 mps 745 mmHg 85%
10:00 +22°C° 0.1 mm 3 mps 745 mmHg 80%
11:00 +24°C° 0.1 mm 3 mps 745 mmHg 75%
12:00 +25°C° 0.1 mm 3 mps 745 mmHg 70%
13:00 +26°C° 0.3 mm 3 mps 745 mmHg 69%
14:00 +26°C° 0.3 mm 3 mps 745 mmHg 68%
15:00 +26°C° 0.3 mm 3 mps 745 mmHg 67%
16:00 +25°C° 0.5 mm 3 mps 745 mmHg 72%
17:00 +24°C° 0.5 mm 2 mps 745 mmHg 78%
18:00 +23°C° 0.5 mm 1 mps 745 mmHg 84%
19:00 +23°C° 0.1 mm 1 mps 745 mmHg 85%
20:00 +22°C° 0.1 mm 1 mps 745 mmHg 87%
21:00 +21°C° 0.1 mm 1 mps 745 mmHg 89%
22:00 +19°C° 0 mm 0 mps 745 mmHg 89%
23:00 +19°C° 0 mm 0 mps 745 mmHg 90%

15 August, Saturday

Time Temperature Precipitation Wind Pressure Humidity
00:00 +18°C° 0 mm 0 mps 745 mmHg 90%
01:00 +18°C° 0 mm 0 mps 745 mmHg 91%
02:00 +18°C° 0 mm 0 mps 745 mmHg 91%
03:00 +20°C° 0 mm 1 mps 745 mmHg 92%
04:00 +20°C° 0 mm 1 mps 745 mmHg 91%
05:00 +21°C° 0 mm 1 mps 745 mmHg 89%
06:00 +21°C° 0 mm 1 mps 745 mmHg 88%
07:00 +23°C° 0 mm 1 mps 745 mmHg 81%
08:00 +24°C° 0 mm 1 mps 745 mmHg 75%
09:00 +26°C° 0 mm 1 mps 746 mmHg 68%
10:00 +27°C° 0.2 mm 1 mps 745 mmHg 64%
11:00 +28°C° 0.2 mm 1 mps 745 mmHg 60%
12:00 +29°C° 0.2 mm 1 mps 745 mmHg 57%
13:00 +29°C° 0.3 mm 1 mps 745 mmHg 57%
14:00 +29°C° 0.3 mm 1 mps 744 mmHg 57%
15:00 +29°C° 0.3 mm 2 mps 744 mmHg 57%
16:00 +28°C° 0.1 mm 2 mps 744 mmHg 62%
17:00 +27°C° 0.1 mm 2 mps 744 mmHg 67%
18:00 +26°C° 0.1 mm 2 mps 744 mmHg 72%
19:00 +25°C° 0 mm 2 mps 744 mmHg 76%
20:00 +23°C° 0 mm 2 mps 744 mmHg 80%
21:00 +21°C° 0 mm 2 mps 744 mmHg 83%
22:00 +22°C° 0 mm 1 mps 744 mmHg 85%
23:00 +21°C° 0 mm 1 mps 744 mmHg 86%

16 August, Sunday

Time Temperature Precipitation Wind Pressure Humidity
00:00 +21°C° 0 mm 1 mps 744 mmHg 88%
01:00 +21°C° 0 mm 1 mps 743 mmHg 89%
02:00 +21°C° 0 mm 1 mps 743 mmHg 90%
03:00 +20°C° 0 mm 1 mps 743 mmHg 91%
04:00 +21°C° 0 mm 1 mps 743 mmHg 88%
05:00 +22°C° 0 mm 1 mps 743 mmHg 86%
06:00 +22°C° 0 mm 1 mps 743 mmHg 84%
07:00 +24°C° 0.1 mm 1 mps 743 mmHg 76%
08:00 +26°C° 0.1 mm 2 mps 743 mmHg 67%
09:00 +29°C° 0.1 mm 2 mps 743 mmHg 59%
10:00 +30°C° 0.5 mm 2 mps 743 mmHg 54%
11:00 +31°C° 0.5 mm 2 mps 743 mmHg 50%
12:00 +32°C° 0.5 mm 2 mps 743 mmHg 45%
13:00 +32°C° 0.1 mm 2 mps 742 mmHg 44%
14:00 +32°C° 0.1 mm 2 mps 742 mmHg 43%
15:00 +32°C° 0.1 mm 2 mps 742 mmHg 42%
16:00 +31°C° 0 mm 2 mps 742 mmHg 47%
17:00 +30°C° 0 mm 2 mps 741 mmHg 53%
18:00 +28°C° 0 mm 2 mps 741 mmHg 58%
19:00 +27°C° 0 mm 2 mps 741 mmHg 63%
20:00 +26°C° 0 mm 2 mps 741 mmHg 67%
21:00 +24°C° 0 mm 2 mps 741 mmHg 72%
22:00 +23°C° 0 mm 1 mps 741 mmHg 74%
23:00 +23°C° 0 mm 1 mps 741 mmHg 76%
Show more